Powrót do katalogu

STARLINK-34858

AktywnyŁącznośćVLEO
NORAD 65023·PAYLOAD·🇺🇸 United States

Wystrzelony Jul 30, 2025 z Cape Canaveral Space Force Station

Loading…

Następne Przeloty (najbliższe 24 godziny)

TLE

ŚwieżeSource: CelesTrak SupGP

Epoka: Sep 15, 2026, 03:18 UTC

1 65023C 25161J   26258.13798611  .00048451  00000+0  14316-2 0  2586
2 65023  53.1561 132.4788 0001303  84.5180 145.3696 15.34363522    14

Śledź STARLINK-34858 w czasie rzeczywistym z AllMySat

Download on the App Store